Regional Weather Roundup
Issued by NWS Goodland, KS

Home | Current Version | Previous Version | Graphics & Text | Print | Product List | Glossary On
Versions: 1 2 3 4 5 6 7 8 9 10 11 12 13 14 15 16 17 18 19 20 21 22 23 24 25 26 27 28 29 30 31 32 33 34 35 36 37 38 39 40 41 42 43 44 45 46 47 48 49 50
000
ASUS43 KGLD 241508
RWRGLD

GOODLAND FORECAST AREA HOURLY WEATHER ROUNDUP
NATIONAL WEATHER SERVICE GOODLAND KS
900 AM MDT SAT JUN 24 2017

...OFFICIAL OBSERVATIONS...

CITY           SKY/WX    TMP DP  RH WIND       PRES   REMARKS
GOODLAND KS    CLOUDY    63  51  65 SE12      30.30R
HILL CITY KS   CLOUDY    66  48  52 SE6       30.30R
IMPERIAL NEB   CLOUDY    61  42  49 SE5       30.31S
MCCOOK NEB     CLOUDY    61  43  51 CALM      30.30R
AKRON CO       CLOUDY    58  43  57 E7        30.32S
BURLINGTON CO  CLOUDY    63  49  60 S10       30.31R
LIMON CO       CLOUDY    61  46  57 VRB5      30.34R
$$

...UNOFFICIAL OBSERVATIONS...

CITY           SKY/WX    TMP DP  RH WIND       PRES   REMARKS
LENORA KS        N/A     66  32  28 MISG        N/A
NORTON KS      MOSUNNY   70  32  24 SE7       30.29S
SHARON SPRINGS   N/A     63  53  69 S7          N/A
TRENTON NEB      N/A     62  32  32 CALM        N/A
KIT CARSON CO    N/A     64  46  52 MISG        N/A
YUMA CO        CLOUDY    55  45  67 NE7       30.31S
$$



USA.gov is the U.S. government's official web portal to all federal, state and local government web resources and services.